N0YWB Weather Reports


time (UTC)temp
C
wind
direction
speed
KPH
gust
KPH
rain 1hr
cm
rain 24hr
cm
rain mn
cm
humidity
%
barometer
mb
20260503030532 9 171 0.0 3.2 0.00 0.00 0.00 65 1018.4
20260503025516 9 180 0.0 1.6 0.00 0.00 0.00 64 1018.5
20260503024519 9 137 1.6 3.2 0.00 0.00 0.00 64 1018.5
20260503023522 9 141 1.6 3.2 0.00 0.00 0.00 63 1018.6
20260503022525 9 139 3.2 4.8 0.00 0.00 0.00 62 1018.4
20260503021522 9 123 3.2 4.8 0.00 0.00 0.00 62 1018.5
20260503020545 10 180 1.6 3.2 0.00 0.00 0.00 62 1018.5
20260503015527 10 113 0.0 1.6 0.00 0.00 0.00 61 1018.4
20260503014530 10 0.0 0.0 0.00 0.00 0.00 61 1018.3
20260503013526 11 0.0 0.0 0.00 0.00 0.00 60 1018.3
20260503012517 11 0.0 0.0 0.00 0.00 0.00 56 1018.3
20260503011520 12 0.0 0.0 0.00 0.00 0.00 54 1018.4
20260503010516 13 0.0 0.0 0.00 0.00 0.00 52 1018.4
20260503005545 13 170 1.6 3.2 0.00 0.00 0.00 49 1018.4
20260503004527 14 151 3.2 6.4 0.00 0.00 0.00 46 1018.4
20260503003530 15 112 3.2 4.8 0.00 0.00 0.00 47 1018.5
20260503002533 15 117 4.8 8.0 0.00 0.00 0.00 44 1018.5
20260503001517 15 119 3.2 6.4 0.00 0.00 0.00 44 1018.6
20260503000519 15 153 4.8 8.0 0.00 0.00 0.00 44 1018.6
20260502235522 15 76 4.8 8.0 0.00 0.00 0.00 42 1018.7
20260502234525 16 120 4.8 8.0 0.00 0.00 0.00 42 1018.8
20260502233527 16 117 6.4 12.9 0.00 0.00 0.00 43 1018.9
20260502232530 15 92 6.4 9.7 0.00 0.00 0.00 42 1018.9
20260502231532 16 144 3.2 6.4 0.00 0.00 0.00 42 1019.0
20260502230517 16 122 8.0 11.3 0.00 0.00 0.00 41 1019.2
20260502225520 16 130 6.4 9.7 0.00 0.00 0.00 42 1019.3
20260502224522 16 114 6.4 11.3 0.00 0.00 0.00 42 1019.3
20260502223545 16 123 4.8 8.0 0.00 0.00 0.00 41 1019.4
20260502222542 16 134 8.0 11.3 0.00 0.00 0.00 40 1019.4
20260502221518 17 92 4.8 8.0 0.00 0.00 0.00 40 1019.4
20260502220536 17 126 8.0 12.9 0.00 0.00 0.00 41 1019.5
20260502215518 17 139 6.4 16.1 0.00 0.00 0.00 40 1019.6
20260502214520 17 130 9.7 17.7 0.00 0.00 0.00 40 1019.6
20260502213527 17 130 6.4 12.9 0.00 0.00 0.00 40 1019.9
20260502212526 17 4.8 4.8 0.00 0.00 0.00 39 1019.9
20260502211528 17 139 4.8 6.4 0.00 0.00 0.00 39 1020.0
20260502210530 17 167 6.4 12.9 0.00 0.00 0.00 39 1020.2
20260502205515 17 67 6.4 9.7 0.00 0.00 0.00 38 1020.4
20260502204518 17 132 6.4 12.9 0.00 0.00 0.00 41 1020.4
20260502203521 17 108 4.8 9.7 0.00 0.00 0.00 39 1020.6
20260502202543 17 122 3.2 6.4 0.00 0.00 0.00 37 1020.9
20260502201526 17 92 4.8 8.0 0.00 0.00 0.00 39 1021.0
20260502200529 16 154 8.0 16.1 0.00 0.00 0.00 38 1021.1
20260502195531 17 111 4.8 8.0 0.00 0.00 0.00 38 1021.3
20260502194516 17 82 4.8 6.4 0.00 0.00 0.00 36 1021.3
20260502193525 16 154 3.2 6.4 0.00 0.00 0.00 38 1021.5
20260502192515 17 49 8.0 12.9 0.00 0.00 0.00 41 1021.6
20260502191518 16 133 6.4 11.3 0.00 0.00 0.00 41 1021.6
20260502190521 16 118 4.8 9.7 0.00 0.00 0.00 40 1021.7
20260502185523 15 138 6.4 9.7 0.00 0.00 0.00 39 1021.8
20260502184546 16 181 4.8 8.0 0.00 0.00 0.00 40 1022.1
20260502183529 15 227 3.2 8.0 0.00 0.00 0.00 39 1022.1
20260502182531 15 144 9.7 14.5 0.00 0.00 0.00 40 1022.2
20260502181535 15 146 4.8 6.4 0.00 0.00 0.00 40 1022.4
20260502180521 15 146 6.4 8.0 0.00 0.00 0.00 43 1022.4
20260502163518 14 145 6.4 11.3 0.00 0.00 0.00 42 1023.2
20260502162521 12 130 4.8 6.4 0.00 0.00 0.00 44 1023.2
20260502161518 14 94 4.8 9.7 0.00 0.00 0.00 44 1023.2
20260502160526 14 127 8.0 11.3 0.00 0.00 0.00 45 1023.2
20260502151542 13 179 3.2 8.0 0.00 0.00 0.00 51 1023.3
20260502150524 12 135 4.8 6.4 0.00 0.00 0.00 60 1023.3
20260502130532 5 81 3.2 3.2 0.00 0.00 0.00 96 1023.3
20260502123522 3 225 0.0 1.6 0.00 0.00 0.00 97 1023.2
20260502122545 2 0.0 0.0 0.00 0.00 0.00 99 1023.0
20260502121547 3 0.0 0.0 0.00 0.00 0.00 95 1023.0
20260502120529 2 0.0 0.0 0.00 0.00 0.00 98 1023.0
20260502115532 1 0.0 0.0 0.00 0.00 0.00 99 1022.9
20260502113519 0 0.0 0.0 0.00 0.00 0.00 99 1022.6
20260502112522 0 0.0 0.0 0.00 0.00 0.00 99 1022.5
20260502111524 0 0.0 0.0 0.00 0.00 0.00 99 1022.5
20260502110527 0 0.0 0.0 0.00 0.00 0.00 99 1022.5
20260502105530 0 0.0 0.0 0.00 0.00 0.00 99 1022.5
20260502104527 0 0.0 0.0 0.00 0.00 0.00 99 1022.4
20260502103517 0 0.0 0.0 0.00 0.00 0.00 99 1022.3
20260502102520 0 0.0 0.0 0.00 0.00 0.00 97 1022.3
20260502101516 0 0.0 0.0 0.00 0.00 0.00 98 1022.3
20260502100525 0 0.0 0.0 0.00 0.00 0.00 96 1022.3
20260502090522 1 0.0 0.0 0.00 0.00 0.00 94 1022.1
20260502071516 3 0.0 0.0 0.00 0.00 0.00 84 1022.0
20260502070530 3 0.0 0.0 0.00 0.00 0.00 84 1022.0
20260502065516 3 0.0 0.0 0.00 0.00 0.00 84 1022.0
20260502064518 4 0.0 0.0 0.00 0.00 0.00 84 1021.9
20260502063521 5 0.0 0.0 0.00 0.00 0.00 82 1021.9
20260502062523 5 0.0 0.0 0.00 0.00 0.00 82 1022.0
20260502061526 5 0.0 0.0 0.00 0.00 0.00 82 1022.0
20260502060528 5 0.0 0.0 0.00 0.00 0.00 81 1021.9
20260502055551 5 0.0 0.0 0.00 0.00 0.00 81 1021.9
20260502054535 6 0.0 0.0 0.00 0.00 0.00 80 1021.9
20260502053518 6 0.0 0.0 0.00 0.00 0.00 80 1021.6
20260502052521 6 0.0 0.0 0.00 0.00 0.00 79 1021.8
20260502051523 6 0.0 0.0 0.00 0.00 0.00 78 1021.7
20260502050526 6 180 0.0 3.2 0.00 0.00 0.00 78 1021.6
20260502045528 6 0.0 0.0 0.00 0.00 0.00 78 1021.6
20260502044525 6 0.0 0.0 0.00 0.00 0.00 81 1021.5
20260502043515 6 0.0 0.0 0.00 0.00 0.00 83 1021.5
20260502042518 6 0.0 0.0 0.00 0.00 0.00 85 1021.5
20260502041521 6 0.0 0.0 0.00 0.00 0.00 86 1021.4
20260502040523 6 0.0 0.0 0.00 0.00 0.00 85 1021.4
20260502035546 6 0.0 0.0 0.00 0.00 0.00 86 1021.5
20260502034528 6 0.0 0.0 0.00 0.00 0.00 87 1021.3
20260502033531 6 0.0 0.0 0.00 0.00 0.00 87 1021.3
20260502032516 6 0.0 0.0 0.00 0.00 0.00 83 1021.3
20260502031518 7 180 0.0 3.2 0.00 0.00 0.00 82 1021.1